Weather reports worldwide

Advertisment
Murcia, Spain (8430): temperature & dewpoint: 08.11.2018 13:00:00 - 14.11.2018 13:00:00 (CET)Murcia, Spain (8430): wind speed: 08.11.2018 13:00:00 - 14.11.2018 13:00:00 (CET)Murcia, Spain (8430): wind direction: 08.11.2018 13:00:00 - 14.11.2018 13:00:00 (CET)Murcia, Spain (8430): reduced air pressure: 08.11.2018 13:00:00 - 14.11.2018 13:00:00 (CET)Murcia, Spain (8430): visibility: 08.11.2018 13:00:00 - 14.11.2018 13:00:00 (CET)Murcia, Spain (8430): precipitation: 08.11.2018 13:00:00 - 14.11.2018 13:00:00 (CET)
Date & Time tt [°C] td [°C] ff [km/h] ff [kn] dd ppp [hPa] vv [km] rr [mm]
14.11.2018 13:00:00 20,1 13,8 4 2 N 1020,9 15 -
14.11.2018 12:00:00 18,9 12,9 5 3 W 1021,9 18 0,0
14.11.2018 11:00:00 16,8 13,1 2 1 NW 1022,8 16 0,0
14.11.2018 10:00:00 15,2 13,2 2 1 SSW 1022,9 11 -
14.11.2018 09:00:00 14,6 12,8 4 2 W 1023,0 9 0,0
14.11.2018 08:00:00 14,3 12,0 5 3 WNW 1022,7 14 0,0
14.11.2018 07:00:00 14,4 11,9 4 2 W 1022,6 12 -
14.11.2018 06:00:00 14,0 11,9 5 3 WSW 1022,7 14 0,0
14.11.2018 05:00:00 14,4 11,7 5 3 WSW 1022,9 16 0,0
14.11.2018 04:00:00 14,2 11,9 8 4 WSW 1023,2 13 -
14.11.2018 03:00:00 14,2 12,2 8 4 W 1023,6 10 0,0
14.11.2018 02:00:00 14,2 12,6 5 3 WNW 1023,7 11 0,0
14.11.2018 01:00:00 13,8 12,2 5 3 W 1024,1 10 -
14.11.2018 00:00:00 14,4 12,8 4 2 WSW 1024,3 7 0,0
13.11.2018 23:00:00 15,3 13,1 4 2 SW 1024,1 - 0,0
13.11.2018 22:00:00 16,3 14,1 11 6 NW 1023,8 9 -
13.11.2018 21:00:00 16,6 14,2 8 4 NW 1023,7 11 0,0
13.11.2018 20:00:00 17,0 14,3 4 2 N 1023,6 13 0,0
13.11.2018 19:00:00 18,0 14,5 8 4 ENE 1023,3 15 -
13.11.2018 18:00:00 19,7 14,1 9 5 E 1022,8 16 0,0
13.11.2018 17:00:00 21,5 12,9 8 4 E 1022,3 19 0,0
13.11.2018 16:00:00 22,2 11,9 9 5 ESE 1022,2 20 -
13.11.2018 15:00:00 22,2 12,4 11 6 E 1022,1 20 0,0
13.11.2018 14:00:00 22,3 12,3 9 5 E 1022,2 20 0,0
13.11.2018 13:00:00 21,7 12,0 4 2 ENE 1022,6 20 -
13.11.2018 12:00:00 20,2 12,2 5 3 W 1023,3 20 0,0
13.11.2018 11:00:00 18,2 12,4 5 3 SSE 1023,3 18 0,0
13.11.2018 10:00:00 14,5 12,0 2 1 WSW 1023,0 15 -
13.11.2018 09:00:00 12,2 10,4 4 2 W 1022,5 9 0,0
13.11.2018 08:00:00 11,6 10,3 2 1 SSE 1021,8 10 0,0
13.11.2018 07:00:00 12,0 10,2 4 2 W 1021,3 10 -
13.11.2018 06:00:00 12,0 10,6 4 2 W 1020,8 9 0,0
13.11.2018 05:00:00 12,0 10,2 2 1 WSW 1020,4 9 0,0
13.11.2018 04:00:00 12,7 10,8 5 3 WSW 1020,3 12 -
13.11.2018 03:00:00 12,4 10,6 4 2 W 1020,0 10 0,0
13.11.2018 02:00:00 12,9 10,8 8 4 WNW 1019,9 9 0,0
13.11.2018 01:00:00 14,0 11,7 8 4 W 1019,7 9 -
13.11.2018 00:00:00 14,1 11,8 2 1 NNW 1018,9 9 0,0
12.11.2018 23:00:00 15,0 12,3 5 3 WSW 1018,9 10 0,0
12.11.2018 22:00:00 15,0 12,7 4 2 W 1018,6 10 -
12.11.2018 21:00:00 15,6 13,1 4 2 WNW 1018,0 11 0,0
12.11.2018 20:00:00 16,5 13,4 4 2 NNW 1017,8 13 0,0
12.11.2018 19:00:00 17,3 13,6 8 4 NE 1017,4 15 -
12.11.2018 18:00:00 18,9 13,5 9 5 ENE 1016,5 18 0,0
12.11.2018 17:00:00 20,3 12,3 9 5 ENE 1016,1 20 0,0
12.11.2018 16:00:00 21,0 11,6 8 4 ENE 1015,6 20 -
12.11.2018 15:00:00 21,9 11,3 4 2 E 1015,3 20 0,0
12.11.2018 14:00:00 21,3 11,0 4 2 ENE 1015,6 20 0,0
12.11.2018 13:00:00 20,4 11,1 2 1 W 1016,1 15 -
12.11.2018 12:00:00 19,0 11,1 5 3 NW 1016,7 - 0,0
12.11.2018 11:00:00 16,6 11,3 5 3 NW 1017,1 15 0,0
12.11.2018 10:00:00 15,0 11,2 8 4 W 1016,8 14 -
12.11.2018 09:00:00 13,1 10,8 4 2 S 1016,4 7 0,0
12.11.2018 08:00:00 11,5 10,2 4 2 W 1015,7 - 0,0
12.11.2018 07:00:00 12,4 11,3 4 2 W 1015,2 4,0 -
12.11.2018 06:00:00 13,5 12,4 4 2 W 1014,7 4,3 0,0
12.11.2018 05:00:00 14,0 12,9 5 3 W 1014,4 4,1 0,0
12.11.2018 04:00:00 13,7 12,9 8 4 WSW 1014,6 2,9 -
12.11.2018 03:00:00 13,2 12,4 8 4 SW 1014,5 3,2 0,0
12.11.2018 02:00:00 13,3 11,9 4 2 SW 1014,4 6 0,0
12.11.2018 01:00:00 13,7 12,8 5 3 ENE 1014,6 - -
12.11.2018 00:00:00 14,3 13,2 5 3 E 1014,9 - 0,0
11.11.2018 23:00:00 13,2 11,6 4 2 NNE 1015,0 6 0,0
11.11.2018 22:00:00 14,5 12,9 5 3 ENE 1014,9 11 -
11.11.2018 21:00:00 15,0 12,5 2 1 E 1014,4 12 0,0
11.11.2018 20:00:00 16,7 12,6 4 2 W 1014,4 19 0,0
11.11.2018 19:00:00 17,9 13,4 4 2 NW 1013,9 19 -
11.11.2018 18:00:00 20,3 13,3 4 2 SE 1013,1 19 0,0
11.11.2018 17:00:00 22,2 12,7 5 3 ESE 1013,4 20 0,0
11.11.2018 16:00:00 23,4 11,8 9 5 E 1013,6 20 -
11.11.2018 15:00:00 24,3 10,9 5 3 SE 1013,8 20 0,0
11.11.2018 14:00:00 23,8 10,1 8 4 ESE 1014,7 20 0,0
11.11.2018 13:00:00 23,4 9,4 4 2 E 1015,5 20 -
11.11.2018 12:00:00 21,7 9,9 4 2 WSW 1016,6 20 0,0
11.11.2018 11:00:00 19,6 9,8 2 1 ENE 1017,6 20 0,0
11.11.2018 10:00:00 16,2 10,1 4 2 SW 1017,9 12 -
11.11.2018 09:00:00 13,5 9,2 4 2 WSW 1017,8 8 0,0
11.11.2018 08:00:00 11,4 8,3 4 2 WSW 1017,4 20 0,0
11.11.2018 07:00:00 11,7 8,4 5 3 SW 1016,9 20 -
11.11.2018 06:00:00 11,4 8,4 5 3 SSW 1016,8 20 0,0
11.11.2018 05:00:00 10,9 8,3 4 2 W 1016,6 20 0,0
11.11.2018 04:00:00 10,8 8,6 2 1 N 1016,7 20 -
11.11.2018 03:00:00 12,5 8,8 5 3 W 1016,9 20 0,0
11.11.2018 02:00:00 12,8 9,1 4 2 W 1017,1 20 0,0
11.11.2018 01:00:00 13,6 9,6 8 4 SSW 1017,2 19 -
11.11.2018 00:00:00 13,6 10,2 4 2 W 1017,1 19 0,0
10.11.2018 23:00:00 14,9 9,7 4 2 WSW 1017,0 20 0,0
10.11.2018 22:00:00 15,1 9,7 4 2 WNW 1016,9 20 -
10.11.2018 21:00:00 15,7 10,0 0 0 N 1016,5 19 0,0
10.11.2018 20:00:00 18,1 10,0 8 4 W 1016,0 20 0,0
10.11.2018 19:00:00 19,3 9,8 9 5 WSW 1015,3 20 -
10.11.2018 18:00:00 21,3 9,2 5 3 W 1014,6 20 0,0
10.11.2018 17:00:00 23,3 8,2 4 2 S 1014,5 20 0,0
10.11.2018 16:00:00 23,9 7,5 8 4 WNW 1014,7 20 -
10.11.2018 15:00:00 24,1 7,7 5 3 SSW 1014,8 20 0,0
10.11.2018 14:00:00 22,8 7,3 4 2 W 1015,2 20 0,0
10.11.2018 13:00:00 20,6 7,2 5 3 SW 1016,1 20 -
10.11.2018 12:00:00 19,7 7,4 5 3 W 1017,4 20 0,0
10.11.2018 11:00:00 18,4 7,2 9 5 W 1018,2 20 0,0
10.11.2018 10:00:00 16,7 6,5 8 4 WSW 1018,6 20 -
10.11.2018 09:00:00 14,0 6,1 8 4 SW 1018,6 18 0,0
10.11.2018 08:00:00 10,6 5,4 5 3 W 1018,0 20 0,0
10.11.2018 07:00:00 11,1 5,2 4 2 SW 1017,8 20 -
10.11.2018 06:00:00 11,3 5,2 8 4 SW 1018,0 20 0,0
10.11.2018 05:00:00 12,2 5,1 8 4 W 1018,2 20 0,0
10.11.2018 04:00:00 13,0 4,9 9 5 W 1018,7 20 -
10.11.2018 03:00:00 13,2 4,9 8 4 SSW 1018,8 20 0,0
10.11.2018 02:00:00 13,2 4,9 5 3 SSW 1019,0 20 0,0
10.11.2018 01:00:00 13,6 5,0 2 1 NE 1019,3 20 -
10.11.2018 00:00:00 14,4 3,2 4 2 SSE 1019,8 20 0,0
09.11.2018 23:00:00 13,8 3,0 8 4 W 1019,9 20 0,0
09.11.2018 22:00:00 14,4 2,6 11 6 W 1020,0 20 -
09.11.2018 21:00:00 15,0 2,2 11 6 W 1019,5 20 0,0
09.11.2018 20:00:00 15,4 2,2 9 5 SW 1020,0 20 0,0
09.11.2018 19:00:00 16,1 2,1 15 8 W 1019,2 20 -
09.11.2018 18:00:00 16,6 2,2 15 8 W 1018,4 20 0,0
09.11.2018 17:00:00 18,0 2,3 18 10 WNW 1018,0 20 0,0
09.11.2018 16:00:00 18,6 2,4 22 12 WNW 1017,5 20 -
09.11.2018 15:00:00 18,9 3,1 21 11 WNW 1017,8 20 0,0
09.11.2018 14:00:00 18,6 3,6 16 9 WNW 1017,9 20 0,0
09.11.2018 13:00:00 17,8 3,6 26 14 WNW 1018,3 25 -
09.11.2018 12:00:00 17,1 4,1 29 16 WNW 1018,9 20 0,0
09.11.2018 11:00:00 16,2 4,6 24 13 WNW 1019,0 20 0,0
09.11.2018 10:00:00 14,8 3,9 22 12 W 1019,1 25 -
09.11.2018 09:00:00 13,0 4,7 18 10 W 1018,7 20 0,0
09.11.2018 08:00:00 10,7 4,6 13 7 SW 1018,4 20 0,0
09.11.2018 07:00:00 9,9 6,6 4 2 SSE 1017,9 20 -
09.11.2018 06:00:00 11,1 6,6 11 6 NW 1017,4 20 0,0
09.11.2018 05:00:00 11,8 8,5 9 5 WNW 1016,9 20 0,0
09.11.2018 04:00:00 12,6 10,3 4 2 ESE 1016,4 19 -
09.11.2018 03:00:00 13,1 9,7 13 7 NW 1016,5 14 0,4
09.11.2018 02:00:00 14,5 12,9 9 5 NW 1015,8 8 0,0
09.11.2018 01:00:00 15,6 13,6 8 4 WSW 1015,0 9 -
09.11.2018 00:00:00 16,7 13,6 4 2 ESE 1014,4 9 0,0
08.11.2018 23:00:00 16,2 12,7 8 4 NNW 1015,2 15 0,0
08.11.2018 22:00:00 16,3 12,6 4 2 NE 1015,4 15 -
08.11.2018 21:00:00 16,8 12,5 9 5 SSE 1015,2 16 0,0
08.11.2018 20:00:00 17,0 12,9 9 5 SSE 1015,1 12 0,0
08.11.2018 19:00:00 17,3 13,2 8 4 SE 1015,4 16 -
08.11.2018 18:00:00 18,1 13,0 5 3 SE 1015,4 18 0,0
08.11.2018 17:00:00 19,7 12,2 5 3 SE 1015,3 20 0,0
08.11.2018 16:00:00 20,3 12,5 13 7 ENE 1015,4 20 -
08.11.2018 15:00:00 20,2 12,7 13 7 ENE 1016,2 20 0,0
08.11.2018 14:00:00 19,8 12,5 8 4 ENE 1017,2 20 0,0
08.11.2018 13:00:00 18,1 11,2 5 3 ENE 1018,4 17 -

tt = temperature
td = dewpoint
ff = wind speed
dd = wind direction
ppp = reduced air pressure
vv = visibility
rr = precipitation

Next stations